Find Starlink 32382

NORAD ID: 61258 Int'l Des: 2024-175 Owner: SPXS Country: US Constellation: starlink operational
LEOCIRCULAR

Live-Position

3D-Globus wird geladen...

Über Starlink 32382

Beschreibung wird geladen...

Nächste Überflüge

Passes for default location (London). Set your location on the main map for personalized predictions.

Höhenverlauf

Loading altitude history...

Zweizeiliger Elementsatz

1 61258U 24175R 26125.71622052 .00000656 00000-0 34293-4 0 9994
2 61258 53.1618 289.2249 0001285 100.0498 260.0648 15.30193273 90180
Epoch: 5. Mai 2026 • Age: 19 hours

Aktueller Status

Höhe 482.4 km
Geschwindigkeit 7.62 km/s
Subsatellitenpunkt -23.11°S, 135.37°W
Startdatum 25. Sept. 2024
Alter 1.6 years
Typ internet

Technische Details

Klassifizierung Payload
Masse 730.00 kg
Trockenmasse 700.00 kg
Gesamtmasse 730.00 kg
Länge 0.30 m
Durchmesser 4.10 m
Spannweite 29.00 m
Form Box + pan
Hersteller SPXS
Bus-Typ Starlink V2M
Phasenstatus In Orbit
Besitzer/Staat SPXS/US

Most Searched